Theta_e
305 305 305 305 306 306 305 305 305 306 306 306 306 306 306 305 305 305 306 307 307 308 308 308 309 309 310 310 310 309 308 311 315 316 316 317 318 319 318 315 315 318 317 314 316 316 314 311 310 312 313 314 318 320 319 321 324 325 327 325 324 323 321 321 321 322 323 324 327 331 330 330 331 329 329 328 328 330 328 327 327 328 331 336 339 337 336 336
304 304 304 304 305 305 305 305 305 306 306 306 306 306 306 306 306 306 306 306 307 307 308 308 308 308 309 310 310 309 308 313 316 315 316 317 318 317 315 315 316 318 319 319 320 316 312 310 311 313 313 313 317 320 319 321 323 325 326 324 322 322 321 320 321 321 322 323 327 329 330 331 330 329 328 328 329 329 329 330 328 330 333 335 338 338 337 336
304 304 304 304 304 304 305 305 305 305 305 306 306 306 306 306 306 306 306 306 307 307 308 308 308 308 308 309 310 307 310 314 314 315 318 318 317 316 315 316 315 316 320 321 320 316 313 313 314 312 311 311 315 318 320 321 321 322 324 323 323 322 321 319 320 320 320 322 326 326 328 330 329 329 328 328 330 329 329 331 329 330 334 335 337 338 337 337
304 304 304 304 304 304 303 304 304 304 305 305 306 306 306 306 307 306 305 306 306 306 307 307 308 308 308 309 308 308 313 313 313 318 319 315 315 316 316 316 315 315 318 318 317 315 313 315 315 311 310 311 314 317 320 321 321 321 321 321 322 322 321 321 320 320 322 324 324 324 326 329 329 328 328 329 330 330 329 329 330 329 332 335 336 337 336 337
304 304 304 304 304 304 303 302 303 304 304 305 305 306 306 306 307 306 306 306 306 306 306 307 308 309 308 308 307 310 313 308 313 323 319 315 315 316 316 316 315 315 318 318 317 316 314 315 314 312 312 311 314 316 318 320 320 320 321 320 320 320 320 321 322 324 325 324 324 323 322 325 328 328 328 330 330 331 330 329 330 328 330 334 334 336 336 337
303 304 304 304 304 304 304 303 303 303 304 304 305 305 305 305 306 306 306 305 305 305 306 307 307 308 308 308 308 312 312 307 314 321 317 316 315 315 316 316 315 315 318 318 318 317 316 315 313 313 313 310 312 314 315 318 320 319 319 319 319 319 320 320 323 325 324 322 323 321 320 321 323 325 327 329 329 329 330 330 329 330 331 332 334 336 336 338
303 303 303 303 304 304 304 304 304 303 304 304 304 305 305 305 305 306 306 305 304 305 305 306 307 308 308 308 309 311 312 310 312 314 313 314 313 314 316 316 316 316 318 318 318 318 316 315 314 314 312 311 311 311 312 316 319 319 318 318 318 318 319 320 323 326 324 322 322 321 322 325 324 325 327 328 328 328 329 330 329 329 332 333 334 336 336 338
303 303 303 303 303 303 303 304 304 304 304 304 304 304 305 305 305 305 305 304 304 304 305 305 306 308 308 309 309 309 310 311 311 310 311 312 314 316 316 316 316 316 317 318 317 317 317 316 315 314 312 311 311 310 311 313 315 316 317 319 321 319 319 322 324 325 324 323 322 322 323 326 326 325 326 326 327 328 328 329 329 329 331 334 336 336 336 337
303 303 303 303 303 303 303 303 304 304 303 304 304 304 304 305 305 305 304 304 303 302 303 305 306 307 307 309 309 309 309 309 310 311 311 313 315 315 315 316 316 315 316 317 317 316 317 316 314 315 315 315 315 316 314 313 314 315 317 320 321 318 316 320 324 323 323 324 322 322 323 324 324 324 324 324 325 328 328 328 329 329 329 333 336 335 335 336
304 303 303 302 302 303 303 303 303 303 303 303 304 304 304 304 304 304 304 304 303 301 302 304 306 306 306 308 309 309 309 307 310 312 312 313 314 314 315 316 317 316 315 316 318 316 317 316 316 316 317 318 317 318 318 314 314 315 317 318 320 319 315 317 321 322 322 323 323 322 323 323 322 322 322 323 326 328 328 328 329 330 329 330 332 333 334 335
304 303 303 303 303 302 303 303 303 303 303 303 303 304 304 303 304 304 304 304 302 301 303 303 304 306 307 308 308 309 308 308 310 311 312 313 314 315 315 316 317 317 316 317 318 318 318 317 316 316 317 317 313 314 316 315 314 315 317 317 318 320 319 318 319 321 322 322 323 322 322 323 322 322 322 322 325 327 327 327 327 329 330 330 331 332 334 334
303 303 303 303 303 302 303 303 303 303 303 303 303 303 303 303 303 303 303 304 303 303 303 302 303 306 307 307 307 308 307 308 309 309 310 311 312 313 313 315 317 318 317 318 318 318 319 318 316 315 316 316 314 313 314 317 315 315 318 317 317 317 317 318 318 321 322 321 322 323 324 324 323 322 321 322 324 325 325 326 326 328 330 330 330 331 333 334
303 303 303 302 303 302 302 302 303 303 303 303 303 303 303 303 301 300 300 302 302 302 302 303 305 306 306 306 306 306 307 308 308 309 309 309 310 311 311 313 316 318 317 317 317 317 319 319 316 315 315 316 318 317 317 319 318 317 318 317 318 317 315 314 316 318 320 320 321 323 323 321 322 322 321 322 324 324 324 325 326 326 328 329 330 331 332 333
303 303 303 303 302 302 302 302 302 302 303 303 303 303 302 301 299 298 298 299 300 300 303 304 305 306 306 305 305 305 305 306 307 308 310 310 310 310 310 312 314 316 316 317 318 318 319 318 317 316 315 315 318 318 319 320 319 320 319 319 319 316 313 312 314 316 318 320 320 322 321 317 319 321 321 322 323 324 324 324 327 326 327 329 330 331 331 333
303 303 303 303 302 302 302 302 302 302 302 302 302 302 301 298 297 297 297 298 300 302 304 304 305 306 305 304 305 306 306 307 307 307 308 310 311 311 310 311 313 314 316 317 318 319 320 318 318 316 315 315 316 317 318 319 319 320 320 320 320 317 315 313 314 317 319 319 318 323 323 318 316 319 320 321 322 324 323 323 325 326 327 328 329 330 330 331
302 303 303 302 302 302 302 302 302 302 302 302 302 301 299 297 297 297 298 301 303 303 304 304 305 305 305 304 304 306 307 308 309 308 308 308 310 311 310 310 312 314 316 318 318 320 320 319 318 317 316 316 316 316 318 318 318 319 320 319 319 319 318 315 317 320 320 319 319 322 323 319 317 317 318 319 321 323 323 323 323 324 325 326 327 328 329 329
302 303 303 302 302 302 302 302 302 302 302 302 301 299 299 298 298 299 300 303 304 304 304 304 305 305 304 304 304 304 306 308 309 310 310 309 309 309 310 310 311 313 316 318 318 319 319 319 318 317 317 318 317 317 318 317 316 317 319 320 317 318 319 317 320 323 320 320 320 322 321 318 317 318 320 321 322 323 323 323 322 322 323 323 324 325 326 327
302 303 302 302 302 302 302 302 302 302 302 301 299 300 301 299 299 301 302 304 305 304 305 305 304 303 303 304 304 304 306 308 307 308 310 311 311 310 309 310 311 314 316 317 318 318 319 319 318 317 317 317 317 319 318 316 314 315 318 321 319 317 316 316 321 324 321 321 320 322 322 321 319 318 321 323 323 324 324 324 323 323 323 323 322 322 323 324
302 302 302 302 302 302 302 302 302 302 301 299 299 301 301 300 300 302 304 304 303 303 303 304 304 303 303 305 305 304 306 307 306 308 310 310 311 311 311 310 311 314 316 318 319 319 319 319 319 318 318 316 316 317 318 315 313 314 315 318 319 318 315 314 320 323 321 322 321 320 321 321 322 321 321 322 322 324 324 323 323 323 323 322 322 322 321 322
302 302 302 302 302 302 302 302 301 301 300 299 300 302 300 300 300 301 303 302 301 301 301 302 303 303 302 303 303 303 305 305 306 308 308 308 310 311 311 311 311 314 316 316 317 318 320 320 320 318 317 316 315 315 316 315 314 314 315 316 317 319 317 314 318 321 320 322 322 320 320 319 321 321 321 321 321 322 322 322 322 321 321 322 322 323 324 325
302 302 303 302 302 302 302 301 301 301 300 299 301 301 299 300 300 301 301 300 300 301 301 301 301 302 302 302 302 302 303 305 306 308 307 306 308 311 312 312 312 314 314 315 315 317 320 321 319 317 316 315 315 315 314 314 314 314 315 316 316 318 320 317 317 319 318 319 319 319 319 318 318 318 318 319 319 320 320 321 321 320 320 321 322 324 326 326
302 302 303 303 302 302 301 301 301 300 300 300 301 300 300 301 301 301 301 300 300 300 301 301 301 301 302 302 302 303 304 304 304 306 306 305 308 311 312 312 313 313 312 313 315 316 319 319 318 317 316 315 314 315 314 315 315 315 316 317 317 316 317 317 317 318 317 317 317 316 316 316 316 316 316 317 317 318 319 319 320 320 320 320 321 323 325 326
302 302 302 303 303 301 301 301 300 300 301 301 301 300 301 301 301 301 301 300 300 300 301 301 301 302 302 302 303 303 305 305 304 304 305 307 309 310 311 312 312 312 311 313 314 315 316 316 316 316 316 315 315 315 315 316 316 317 317 317 317 316 315 313 315 318 317 316 316 315 315 314 314 315 316 316 316 316 317 318 319 320 321 321 321 322 322 323
301 302 302 303 303 302 301 301 300 301 301 301 301 301 301 301 301 301 301 300 299 299 301 301 302 302 303 303 303 304 305 305 304 304 305 307 309 309 309 311 312 312 312 312 313 314 314 313 313 315 316 316 316 315 316 316 316 317 318 317 316 316 314 311 314 316 313 314 315 315 314 312 312 313 313 314 315 315 315 316 316 318 321 324 323 323 321 320
301 301 302 302 303 302 301 301 301 301 301 300 301 301 301 301 301 301 301 300 299 300 302 302 302 303 303 303 303 304 304 305 305 305 305 307 309 310 310 310 311 312 312 312 314 314 313 312 312 314 316 317 317 316 316 317 316 317 318 318 317 317 315 313 314 314 313 313 314 314 313 311 310 310 310 311 311 312 313 314 314 315 320 323 323 321 321 321
300 301 301 302 302 302 301 301 302 301 301 301 301 301 301 301 301 301 301 300 300 301 302 304 304 303 303 304 305 304 304 304 305 305 305 306 308 309 310 310 311 312 312 312 314 314 313 312 312 313 314 317 318 317 317 317 316 317 316 317 317 317 317 316 315 315 315 314 313 313 313 311 311 310 310 310 309 310 311 312 313 313 316 320 320 319 319 319
300 300 301 301 302 302 302 301 301 301 301 301 301 301 301 301 301 301 301 300 300 300 301 304 305 304 304 304 304 304 304 304 304 305 306 305 307 309 310 310 310 310 311 312 314 314 314 314 314 313 314 316 317 317 316 316 317 317 316 317 318 318 317 317 316 316 315 313 312 313 314 312 311 310 310 310 309 309 310 312 312 312 313 316 318 317 317 317
299 300 300 301 302 302 302 302 301 302 301 301 301 301 300 300 301 301 300 298 299 300 302 304 305 304 304 305 304 303 304 303 303 305 306 305 306 308 309 309 309 309 310 312 314 313 312 314 315 314 315 316 316 316 317 318 318 317 317 319 319 318 318 318 318 317 314 313 313 312 312 312 310 308 309 308 308 308 308 310 313 313 313 314 316 316 317 316
299 299 299 300 301 301 302 302 302 301 301 301 301 300 300 300 301 301 299 298 298 299 302 305 305 305 304 305 305 305 305 304 304 305 305 305 306 307 309 309 309 309 309 311 312 312 311 313 313 315 316 315 315 315 316 318 317 316 317 318 319 320 319 319 319 317 316 315 314 312 311 311 309 308 309 308 307 307 307 309 314 316 315 315 315 316 316 316
298 298 298 299 301 302 302 302 302 301 301 301 300 300 300 301 301 300 299 299 298 298 302 304 304 305 305 304 304 305 304 304 304 304 304 305 306 306 307 308 308 309 309 310 310 311 311 311 312 314 315 314 314 315 316 317 316 317 319 319 319 320 318 318 318 317 317 316 314 312 310 310 310 309 309 309 308 308 307 307 311 315 315 315 315 315 315 315
297 298 298 298 300 301 302 302 301 301 301 300 299 300 301 300 300 299 298 299 299 300 302 302 301 303 304 302 302 303 303 304 305 304 303 305 305 306 307 308 308 309 308 308 309 310 310 311 312 313 314 314 315 316 316 317 318 319 320 319 320 320 319 320 320 319 318 316 314 312 312 311 311 310 309 310 310 309 309 308 308 311 313 313 314 314 315 315
296 297 297 298 300 302 302 302 301 301 300 300 300 300 300 300 300 299 299 300 300 301 302 301 300 300 301 301 302 303 304 304 304 303 302 304 305 306 307 308 307 308 308 308 309 309 310 311 311 313 315 315 315 316 317 318 319 319 319 319 319 320 321 321 320 320 318 315 313 313 314 314 312 310 309 310 310 310 310 310 310 311 312 314 315 315 315 316
296 296 296 298 301 302 303 302 302 301 301 300 301 300 299 299 300 299 299 299 299 300 300 300 300 300 301 301 302 304 304 303 303 303 303 305 306 306 306 307 307 307 307 307 308 309 309 310 310 312 315 315 315 316 317 318 318 319 319 318 318 318 320 320 318 318 318 316 314 313 315 316 313 311 311 309 309 310 311 312 313 313 314 315 316 315 316 318
295 296 298 300 302 302 302 302 302 301 301 300 300 300 299 300 300 299 299 298 299 299 299 300 301 300 300 301 303 304 304 303 304 304 304 305 306 306 306 306 307 306 306 307 308 309 309 310 311 313 314 314 315 315 315 317 318 318 318 318 317 317 317 317 317 317 317 317 316 314 316 316 313 313 316 312 310 310 310 312 314 314 314 315 315 316 321 324
295 297 299 300 302 302 302 302 302 301 301 300 300 300 301 300 299 299 299 299 299 299 300 301 300 300 300 301 303 304 303 303 304 304 305 305 305 305 305 306 307 306 307 307 308 308 308 309 310 312 313 314 314 313 313 316 318 317 317 318 317 316 315 315 315 316 317 317 317 316 317 317 311 313 318 317 315 312 310 310 312 312 312 313 315 318 325 326
296 298 299 300 301 302 302 302 302 302 301 300 301 301 301 300 299 299 299 299 300 300 300 300 299 300 300 300 301 303 302 302 304 304 304 305 304 304 305 306 306 306 307 307 308 308 308 308 308 311 314 313 314 314 313 315 317 317 317 318 317 315 315 317 317 315 315 317 316 315 317 317 313 314 314 315 317 315 314 312 310 311 311 311 314 319 323 322
298 299 299 300 301 302 302 302 302 302 301 300 301 301 301 300 300 300 299 299 300 300 300 300 299 299 300 299 300 301 302 302 303 303 302 302 303 304 306 306 306 306 306 306 307 307 307 308 308 309 312 312 312 314 314 314 315 317 317 317 316 316 315 316 318 318 317 316 315 313 315 316 316 316 314 313 315 315 316 315 311 311 311 311 315 319 320 318
299 299 299 300 301 302 302 302 302 301 300 301 302 302 301 301 300 300 300 300 300 300 300 299 299 298 299 299 299 300 300 301 301 301 300 300 302 304 306 306 306 306 305 305 307 306 305 306 307 307 308 310 312 314 314 315 314 315 317 318 318 318 316 316 318 318 318 317 316 314 313 313 315 315 313 313 313 313 315 315 314 312 312 313 316 318 317 317
299 298 298 301 302 302 301 301 301 300 300 301 302 301 301 301 300 300 300 300 300 300 300 299 299 298 298 298 299 299 300 300 300 300 300 300 302 303 304 305 305 305 305 305 307 305 302 303 307 307 308 310 312 312 313 315 315 314 315 317 319 319 317 317 317 317 318 317 316 316 314 313 313 312 312 313 312 312 314 314 314 313 314 316 316 317 317 318
297 297 298 301 301 301 301 301 301 300 300 301 301 301 301 301 301 301 300 300 299 299 300 299 299 299 299 299 300 300 300 300 300 300 300 300 301 301 303 304 304 305 306 307 306 304 302 304 305 305 306 308 311 312 312 313 314 314 314 314 316 316 316 317 317 316 317 317 316 316 316 314 314 312 311 312 311 311 313 315 314 314 315 316 316 317 318 319
297 297 299 301 301 300 300 300 300 300 300 300 300 301 301 300 300 301 301 300 299 299 299 298 299 299 300 300 300 299 299 299 299 299 299 299 299 300 303 305 304 305 306 305 305 305 304 304 303 302 302 303 306 308 310 311 312 313 314 314 314 315 316 317 317 316 316 317 316 316 316 315 313 313 312 312 312 312 313 314 315 315 315 315 316 318 319 324
297 297 297 299 300 300 300 299 300 300 300 300 300 301 300 300 300 301 301 300 300 300 299 299 299 299 299 299 299 299 299 299 299 299 299 299 299 299 301 304 305 304 304 303 304 305 304 303 303 302 303 303 303 304 307 310 310 310 312 313 314 314 315 316 316 315 316 316 316 317 317 316 313 314 315 313 314 315 314 314 315 316 315 315 317 319 323 329
296 296 295 297 299 300 300 299 299 300 300 300 301 301 300 300 300 300 300 300 300 300 299 299 299 299 299 300 300 299 299 300 300 300 300 299 299 299 301 302 303 303 303 303 304 304 304 304 304 303 303 303 304 305 309 310 310 309 310 311 311 311 313 314 313 314 315 316 316 317 317 316 314 316 317 314 314 315 314 314 315 316 316 317 319 324 329 331
295 295 296 298 299 300 300 300 299 300 300 301 301 301 300 300 300 300 300 301 300 300 299 299 299 299 299 299 299 299 300 300 300 300 300 300 299 300 301 302 302 302 301 302 303 304 303 303 304 302 301 301 301 304 309 310 308 307 307 307 309 309 311 312 311 312 313 315 316 318 317 316 316 317 316 314 314 314 314 314 314 315 317 317 320 327 329 328
295 295 296 298 300 300 300 300 300 300 300 300 300 300 300 301 301 300 300 301 301 300 300 299 300 299 299 299 300 300 300 300 300 300 300 300 299 300 301 302 303 302 302 304 305 304 303 303 303 302 301 301 300 302 307 308 306 305 304 304 306 306 307 309 310 311 313 313 315 317 317 317 316 315 314 315 316 315 314 314 314 314 316 316 318 322 323 324
295 295 296 298 300 299 299 300 300 299 300 299 298 299 300 300 300 300 301 301 301 301 300 300 300 300 300 300 300 300 300 300 300 300 300 300 299 299 300 302 302 301 301 303 305 305 303 303 303 303 302 301 301 301 303 305 304 304 304 304 304 303 303 305 307 308 310 311 312 313 314 314 314 313 313 315 316 314 314 315 314 314 314 316 317 319 322 325
295 295 296 296 297 298 299 299 298 297 298 297 297 298 298 299 299 299 301 301 301 301 301 301 301 300 300 300 300 300 300 300 300 300 300 300 300 300 300 301 300 301 301 302 304 304 303 302 302 303 303 302 302 303 303 304 305 305 304 304 303 302 302 303 304 305 307 308 309 310 311 312 311 310 311 313 314 314 314 314 313 312 313 314 315 316 320 324
295 296 296 295 295 296 297 297 296 296 296 296 296 297 297 297 298 298 300 301 301 300 300 301 301 300 300 300 300 300 300 300 301 301 301 300 300 300 301 301 301 302 301 301 304 304 302 302 301 301 302 302 302 303 303 303 304 304 304 303 302 302 303 303 304 304 305 307 308 309 309 309 309 310 310 312 314 315 314 313 312 311 312 313 315 317 318 320
294 295 295 295 295 295 295 295 295 295 295 295 296 296 297 297 298 298 299 300 300 300 300 300 300 300 300 300 300 300 300 300 301 301 301 301 301 301 301 302 302 303 302 302 304 304 302 302 301 300 301 301 301 302 302 302 302 302 303 303 303 304 304 305 305 305 305 306 307 307 307 306 306 308 309 310 312 312 311 311 310 310 310 310 313 316 317 318
294 295 295 294 294 294 294 294 294 294 294 295 296 296 297 297 297 298 298 299 299 299 300 300 300 300 300 300 300 300 300 300 301 301 300 300 301 301 301 301 301 302 302 302 303 303 302 301 301 301 302 302 301 302 302 302 303 303 303 304 304 305 305 306 305 306 306 306 306 307 306 305 305 307 308 308 309 310 309 309 309 309 309 309 310 312 314 315
294 294 294 294 293 293 294 294 294 294 294 294 295 296 296 296 297 298 298 298 298 298 298 299 299 299 299 300 300 300 301 300 301 301 300 301 301 301 301 301 301 301 302 301 302 302 302 302 301 302 302 301 301 301 303 303 303 304 304 304 305 306 306 306 306 306 306 306 305 306 305 305 305 306 306 307 308 309 309 309 309 309 310 311 311 311 311 312
293 293 294 294 293 293 293 293 293 293 293 294 294 295 295 296 296 297 297 297 297 298 298 298 298 298 298 299 299 300 301 300 300 300 300 301 301 300 300 301 300 300 301 301 301 302 302 302 301 301 302 301 300 301 302 303 303 302 303 303 303 304 304 305 305 306 306 305 305 305 304 304 304 305 305 305 306 307 308 308 309 309 310 311 311 310 310 310
Wind_Speed
19 19 19 19 19 19 20 20 20 20 20 20 21 21 21 21 21 21 22 22 22 22 22 23 23 23 23 24 24 24 26 26 22 19 18 18 16 14 11 8 16 16 11 10 11 11 12 12 9 6 6 5 4 4 7 7 4 3 2 4 6 6 7 6 7 6 6 7 5 7 8 8 6 6 3 2 2 3 5 4 5 6 6 10 14 17 21 22
19 19 19 19 19 19 19 20 20 20 20 21 21 21 21 21 21 21 22 21 22 22 22 23 23 23 24 24 24 24 25 24 21 20 18 16 12 7 1 10 18 18 12 11 11 11 9 9 8 6 4 4 4 4 6 5 5 5 3 5 7 6 6 7 8 8 8 6 2 4 8 6 5 9 6 3 6 5 6 6 6 7 8 10 14 17 19 20
19 19 19 19 19 19 19 20 20 21 21 21 21 21 21 21 21 22 22 21 22 22 22 23 22 23 23 24 23 22 23 22 18 12 4 5 9 5 6 14 20 19 13 11 12 11 10 10 11 8 5 4 4 5 6 5 5 6 4 6 6 7 8 9 10 10 10 3 3 4 2 2 4 5 6 6 8 8 8 6 6 8 8 10 11 14 17 18
19 19 19 19 19 20 20 20 20 21 21 21 21 21 21 22 21 22 22 21 22 22 22 22 22 23 22 23 22 21 21 16 8 1 8 10 9 3 8 17 24 20 13 11 11 11 11 11 11 8 5 5 5 6 6 5 4 5 7 7 6 7 8 10 11 9 8 3 2 6 3 0 5 3 3 6 7 7 9 8 9 10 10 12 11 13 15 15
20 20 20 19 19 20 20 20 20 21 21 21 22 22 22 22 21 22 22 21 21 21 22 22 22 22 22 22 21 20 15 8 3 7 9 7 3 8 14 20 25 19 11 10 10 9 10 9 8 7 4 4 5 5 6 8 5 4 8 9 8 9 8 9 7 4 6 4 2 4 4 2 3 5 4 5 6 5 3 4 8 10 11 15 14 13 13 12
20 20 20 20 20 20 20 21 21 21 21 21 22 22 22 22 22 22 22 21 21 21 21 21 21 21 21 21 19 16 8 4 3 6 3 6 12 18 21 21 21 15 11 11 11 8 7 7 6 5 4 4 6 7 7 8 7 6 7 8 10 10 10 9 3 4 5 3 1 4 4 3 5 7 4 4 7 4 4 4 2 2 5 17 18 14 14 12
21 21 21 21 21 21 21 21 21 21 21 21 21 22 22 22 22 22 22 22 21 21 20 20 20 21 21 21 17 11 8 9 11 9 11 18 20 22 21 18 16 13 11 11 10 7 5 6 6 5 5 5 6 8 8 8 9 9 8 8 9 10 11 11 4 4 2 4 4 5 5 3 7 7 3 5 9 8 1 7 6 7 3 15 17 13 14 14
21 21 21 21 21 21 21 21 21 21 21 21 21 22 22 22 22 22 22 22 22 21 20 19 19 19 20 19 12 8 9 13 18 18 18 17 15 16 15 13 12 11 10 9 8 6 5 6 6 5 5 6 6 7 8 8 9 10 9 7 7 9 9 8 5 2 2 3 4 5 5 4 7 6 5 8 8 9 6 4 7 4 3 9 12 12 12 12
20 21 21 21 22 22 22 22 22 22 21 22 21 22 22 22 22 22 22 22 22 22 21 20 18 18 19 15 10 10 10 12 15 14 13 11 10 9 10 10 10 11 10 9 7 5 5 4 5 5 5 6 7 7 7 6 6 6 7 7 8 10 10 7 6 6 4 4 4 6 8 7 7 6 8 11 8 6 7 3 5 6 3 5 8 10 10 10
21 21 21 21 22 22 22 22 22 22 22 22 22 22 22 22 23 22 22 22 22 22 21 19 18 18 17 12 9 10 5 5 8 7 7 6 6 7 8 9 11 11 9 9 7 5 4 5 6 6 6 6 6 7 7 7 4 3 5 7 9 10 10 8 7 9 7 6 7 9 10 9 8 7 7 8 8 6 8 7 5 7 5 6 6 8 9 9
21 20 21 21 21 21 22 22 22 22 22 23 23 22 22 23 23 23 23 22 23 22 21 20 19 17 14 10 9 10 5 9 11 10 9 6 7 8 9 10 11 11 9 8 7 6 6 8 9 6 3 4 5 7 7 8 8 6 6 7 9 9 10 10 8 8 6 6 9 10 10 10 9 10 10 7 7 9 11 11 8 7 7 7 7 7 7 7
20 20 19 20 21 21 21 22 22 22 23 23 23 23 23 24 24 25 24 24 23 22 20 20 18 16 14 10 11 13 14 20 21 20 20 16 13 11 11 12 10 10 10 8 8 7 6 7 8 6 5 4 5 6 4 6 8 7 6 7 9 9 11 12 10 8 7 6 7 6 8 11 12 13 12 8 7 9 11 13 12 9 7 7 7 6 6 6
20 20 19 19 20 20 21 21 21 22 23 24 24 24 24 25 26 27 26 25 24 23 21 19 18 16 13 9 9 15 20 23 22 23 25 23 21 17 16 14 11 10 9 9 10 9 7 7 8 8 7 7 5 4 5 5 5 6 7 6 6 7 10 12 11 11 11 8 7 6 6 10 12 15 14 10 9 10 11 10 11 10 8 8 7 6 6 7
20 20 20 19 19 20 21 21 22 22 22 24 25 25 26 27 28 28 27 26 25 23 20 18 18 16 12 9 11 18 22 23 24 24 22 21 22 22 20 17 15 13 11 10 11 9 7 7 8 7 7 7 6 7 8 5 4 4 6 5 5 5 6 8 11 14 13 9 10 9 8 9 7 11 15 13 12 13 13 11 9 9 8 7 7 7 7 7
22 20 21 20 20 20 21 21 22 22 23 24 25 27 29 29 30 29 27 26 25 23 21 19 18 13 9 10 12 15 16 18 24 27 25 21 20 19 18 17 16 16 13 12 11 8 6 6 6 5 6 7 7 7 6 4 4 4 5 5 5 6 6 7 10 15 13 8 12 11 7 7 7 9 12 13 15 16 15 14 11 9 9 8 7 7 7 6
24 22 21 21 21 21 21 21 21 22 23 23 26 28 30 30 29 27 26 26 24 22 18 15 14 10 7 7 8 10 12 13 17 21 24 25 22 18 17 17 17 15 11 10 10 8 7 5 4 3 5 6 6 5 4 4 5 5 6 6 5 7 6 6 5 12 13 8 12 14 7 3 5 9 9 10 15 17 14 13 13 12 11 10 8 7 7 7
24 22 21 20 21 20 20 20 20 22 22 23 27 29 30 28 23 21 22 22 19 17 14 12 12 8 8 8 7 8 12 11 12 15 17 20 23 23 20 15 14 13 11 10 10 7 6 5 3 3 3 4 5 4 4 6 6 5 6 6 7 7 6 4 4 8 12 10 11 15 12 7 5 3 3 4 7 12 13 13 13 12 10 10 8 8 8 8
24 23 21 20 20 20 20 19 20 21 21 24 27 29 29 23 20 20 17 13 11 11 11 11 9 6 6 7 6 11 14 14 18 19 17 16 17 20 20 15 10 10 10 8 8 7 5 4 3 4 4 5 6 6 7 7 7 6 6 6 6 8 8 6 5 6 12 12 10 12 13 12 10 7 2 2 3 5 9 10 10 9 8 9 9 9 9 9
25 24 23 21 20 19 19 19 19 20 21 25 26 26 24 19 17 12 6 7 7 6 6 6 3 4 7 8 9 13 13 15 19 17 14 15 16 17 17 16 10 9 8 5 7 8 5 4 5 6 6 8 9 10 10 9 7 7 5 4 6 7 9 8 4 5 11 10 10 11 11 10 10 10 8 6 4 4 6 6 5 6 6 7 7 8 8 9
24 25 24 21 19 18 18 18 18 19 22 24 24 22 16 12 10 4 3 7 7 8 10 9 7 9 13 12 14 17 14 11 9 8 12 15 14 14 12 12 8 7 9 8 6 6 6 5 7 8 9 10 11 12 13 11 11 11 7 4 7 6 8 8 4 5 8 7 8 10 10 10 9 9 9 9 8 7 7 7 7 7 6 6 7 7 7 8
24 25 24 22 19 18 17 17 18 19 21 21 18 14 9 9 8 6 8 8 10 12 14 15 15 16 17 16 18 18 13 6 6 9 14 16 10 6 5 9 9 7 9 10 6 3 5 7 10 13 12 12 11 12 12 13 13 13 9 5 7 6 5 5 1 3 4 2 5 7 8 11 10 9 9 9 10 10 9 9 10 10 9 7 8 9 8 5
24 24 24 22 19 17 16 17 18 20 19 15 13 10 8 9 8 8 9 8 10 12 15 19 18 18 20 23 23 18 9 6 9 11 11 10 6 3 4 7 10 9 8 9 7 5 6 9 14 14 11 11 12 11 12 13 13 11 8 6 6 5 5 4 2 5 3 1 3 4 7 9 8 9 10 10 10 9 10 11 11 11 11 10 9 8 7 6
24 24 24 22 18 17 15 16 18 19 14 10 11 9 8 9 10 11 7 8 11 8 11 15 13 13 15 17 17 14 10 8 11 12 7 8 5 4 5 6 9 11 9 9 9 9 8 9 12 12 10 12 13 12 13 11 9 8 6 6 7 6 5 5 2 4 2 1 3 4 6 7 6 7 7 8 9 8 9 12 11 11 11 11 10 8 8 9
25 25 24 21 19 16 14 16 18 13 8 8 8 7 8 10 11 12 7 5 9 6 7 12 10 8 8 10 10 10 9 7 8 11 7 9 5 3 4 6 8 9 10 13 13 12 12 10 8 9 12 14 13 13 12 8 6 7 7 7 7 6 8 6 1 1 2 2 2 3 6 7 7 9 9 7 9 10 10 11 11 10 9 9 9 9 9 9
25 25 24 22 18 15 14 15 11 7 8 8 5 7 10 11 10 9 6 3 5 5 6 7 3 2 5 10 10 7 7 7 8 11 9 8 8 5 4 5 4 6 10 14 13 11 14 13 9 11 11 12 14 13 11 9 7 7 8 9 9 8 9 6 2 2 1 3 2 2 4 7 5 10 11 9 10 13 12 12 13 11 9 9 9 9 9 9
24 24 23 22 18 15 12 8 5 8 10 5 5 9 10 9 10 8 4 3 4 3 2 1 0 2 6 8 7 5 4 5 9 15 16 13 10 5 4 3 2 5 8 8 7 5 9 12 11 14 12 10 13 11 11 10 7 7 6 7 10 10 11 9 3 2 2 3 1 2 2 6 5 5 8 8 11 14 11 12 15 13 11 11 10 10 10 9
23 23 23 22 19 14 8 6 8 9 7 4 6 9 9 9 10 6 2 3 3 2 2 2 1 2 4 5 6 3 3 7 10 11 12 14 11 6 5 7 4 5 4 2 4 2 5 10 11 14 13 10 9 8 10 10 7 6 4 5 8 9 12 11 4 3 2 2 2 1 1 5 7 6 7 8 9 11 9 9 12 13 12 12 11 11 11 11
23 23 23 21 20 14 9 10 11 10 6 7 8 8 9 9 8 4 2 3 2 2 1 1 1 2 1 1 4 3 4 7 6 4 10 14 12 7 7 10 8 9 6 3 5 4 5 8 9 11 12 10 9 8 8 8 8 5 2 2 6 5 7 7 4 2 2 2 4 4 3 4 9 6 6 9 11 12 12 10 8 11 12 12 11 11 12 12
22 24 23 21 20 16 11 10 11 11 9 8 8 8 8 8 6 2 1 3 2 2 0 1 1 1 1 3 2 5 4 1 2 4 12 13 13 7 7 8 6 10 10 6 7 8 6 2 1 4 6 8 11 11 9 8 8 6 4 2 2 2 1 2 3 2 2 4 8 9 8 6 10 6 5 8 10 11 12 10 6 8 10 10 11 11 11 11
23 24 23 22 20 15 11 10 11 12 9 8 8 7 7 6 3 2 2 2 2 1 1 2 3 2 3 6 3 2 3 1 2 5 4 3 6 6 6 5 2 5 8 7 9 11 9 5 2 1 4 6 6 8 11 11 8 4 4 4 1 2 2 1 2 2 3 6 10 13 13 9 10 7 6 6 7 9 10 9 8 8 10 10 10 10 11 10
24 24 24 23 19 13 10 8 7 7 6 5 5 5 6 4 1 1 2 1 2 2 1 3 6 4 6 10 8 2 1 3 2 3 4 2 1 2 3 4 3 3 6 6 8 11 11 9 5 3 5 3 6 5 8 9 6 2 3 4 3 2 2 1 3 4 5 8 10 13 13 11 11 8 5 5 8 9 9 10 11 10 11 11 10 9 10 9
25 25 25 23 17 12 9 7 6 4 4 1 4 4 4 2 1 3 3 1 2 2 2 6 10 8 9 11 8 3 2 2 1 1 3 3 2 3 4 5 4 4 5 5 6 9 9 9 8 6 5 5 1 3 5 5 4 3 4 5 5 4 3 3 5 6 7 9 8 8 10 10 12 13 9 9 10 8 7 8 9 9 9 10 10 10 9 8
25 26 24 19 14 12 11 11 10 6 3 1 2 2 1 2 2 2 1 2 2 2 4 7 10 11 12 11 6 2 0 1 0 0 2 1 2 4 5 7 7 5 4 3 5 6 5 7 10 9 5 7 7 3 4 5 4 6 7 6 7 6 5 5 5 5 6 8 7 7 8 7 8 10 13 16 16 12 9 5 5 7 8 10 10 9 8 8
26 24 21 17 14 13 12 11 9 7 5 1 1 1 1 3 2 1 3 4 3 5 6 7 11 12 11 8 3 2 1 1 1 2 4 2 2 4 3 5 8 7 5 3 4 4 5 6 7 10 6 8 12 10 8 4 3 7 7 6 7 6 5 6 5 6 6 7 6 8 7 6 6 4 6 13 17 16 15 9 5 7 7 7 7 6 6 7
25 22 19 16 13 11 10 8 8 9 7 2 1 2 3 3 2 2 3 3 3 6 6 8 11 11 8 5 2 3 2 1 2 2 3 2 3 5 5 3 3 5 5 4 3 3 6 6 4 8 10 11 13 13 11 5 2 5 5 6 8 8 7 6 6 6 4 4 5 6 5 4 4 5 3 4 6 10 16 15 11 10 8 7 7 6 6 6
23 20 17 15 12 10 9 7 8 10 7 3 2 3 3 3 4 3 3 4 4 6 9 9 7 6 5 4 2 3 3 0 3 3 1 2 3 4 3 3 2 2 3 4 3 2 5 6 4 6 8 11 12 12 12 9 4 3 4 7 10 8 6 5 7 5 4 6 5 5 5 4 4 8 7 6 3 2 9 13 14 13 10 9 9 7 6 6
19 17 16 15 12 7 5 5 8 11 5 2 3 4 3 4 5 5 5 6 5 6 7 6 3 3 5 4 3 4 3 2 4 3 3 4 3 2 1 0 1 1 2 2 3 3 4 7 7 7 8 8 8 8 12 13 10 5 4 8 8 3 0 1 5 5 5 8 5 6 9 5 4 5 6 10 9 5 7 9 12 13 13 12 10 7 7 8
15 15 13 11 6 0 2 4 7 8 2 1 6 7 4 3 4 6 6 6 5 5 5 3 1 1 4 4 5 6 5 4 4 4 5 5 1 2 1 1 2 3 4 4 0 2 4 6 8 8 9 9 4 4 7 10 12 8 3 4 5 2 2 2 3 4 6 7 5 8 11 7 7 6 3 9 12 10 9 8 9 12 12 11 9 8 9 9
13 9 5 3 5 2 1 1 6 5 1 3 6 6 3 2 3 4 5 5 5 4 4 3 3 2 4 6 6 6 6 5 5 5 4 2 1 2 3 2 1 3 4 5 1 1 3 2 5 5 5 4 1 1 3 7 8 4 3 0 3 2 2 4 3 3 5 7 6 8 9 6 7 7 5 7 9 9 9 9 10 11 10 9 8 8 9 9
9 5 1 3 4 2 2 1 4 3 2 4 5 4 2 2 4 4 4 4 3 3 3 4 3 3 4 5 7 6 5 6 6 5 4 3 5 6 5 2 1 0 3 4 2 1 2 1 4 6 9 7 3 1 3 7 7 3 2 5 5 3 2 3 3 4 4 5 6 7 7 5 4 5 8 10 10 9 9 9 10 10 10 9 9 9 10 9
7 3 0 5 3 2 3 1 2 2 3 4 5 6 4 4 5 6 5 4 4 3 3 4 5 5 4 5 6 6 5 5 5 4 5 4 4 4 2 2 2 3 1 1 1 2 2 2 3 5 5 4 7 7 7 7 6 4 4 6 6 6 5 5 5 5 4 4 5 6 7 5 2 4 6 8 8 8 9 10 10 10 11 11 10 10 9 7
4 3 4 7 6 3 2 1 3 2 3 4 4 4 3 4 4 5 5 3 4 3 2 4 6 5 5 5 5 5 4 4 4 4 4 5 5 5 4 4 5 4 2 4 3 1 1 1 1 4 4 6 11 14 11 6 2 3 3 3 4 4 6 8 8 7 6 6 5 6 8 5 3 4 4 3 3 4 4 6 6 9 10 9 8 7 6 6
2 5 11 12 7 1 1 3 4 3 4 4 4 3 2 2 2 4 4 2 1 1 1 2 4 5 5 4 3 4 4 4 5 6 5 6 6 7 9 9 8 5 2 3 3 1 2 0 2 4 4 6 10 11 6 0 2 2 2 2 3 4 6 8 7 5 4 5 5 6 8 6 4 6 7 6 6 6 7 7 2 6 6 6 7 6 6 6
3 5 7 7 3 3 1 3 3 4 4 3 4 4 3 3 3 5 5 2 3 2 2 3 4 5 5 4 3 4 4 4 5 6 6 6 5 7 10 10 8 6 3 3 2 0 0 1 2 5 5 5 6 4 1 3 2 2 3 4 5 6 8 8 6 5 4 5 8 9 8 4 3 6 7 9 9 6 5 7 3 1 3 4 5 5 5 5
3 3 3 3 5 5 1 1 2 5 5 5 5 5 4 3 4 7 7 6 5 5 4 4 4 5 5 4 5 5 5 5 5 4 5 5 5 6 7 7 7 5 5 5 4 2 2 2 0 3 4 4 5 4 2 3 3 3 5 8 8 8 8 7 6 6 5 5 9 10 6 5 7 10 10 8 7 6 6 6 4 3 2 1 2 2 4 4
2 2 3 1 4 3 2 1 1 3 4 5 5 4 4 3 3 4 5 6 8 8 7 6 5 5 6 6 7 7 8 9 7 6 6 6 5 4 5 8 8 8 11 11 3 2 1 3 4 6 7 6 7 8 5 4 4 6 10 11 11 9 9 7 5 6 7 7 8 9 7 8 12 14 11 8 8 9 7 5 5 5 5 5 4 5 4 3
2 1 3 2 0 1 2 2 2 2 4 6 4 3 5 6 7 5 3 5 5 5 5 6 6 6 6 6 6 7 7 8 9 9 10 9 8 8 9 11 10 11 15 12 2 3 2 5 7 10 12 11 11 12 11 7 7 10 12 12 12 12 10 8 6 8 8 8 8 9 8 10 14 15 12 9 9 9 7 9 9 7 6 7 7 7 7 4
2 2 2 1 1 2 2 1 4 6 7 7 5 5 8 9 8 6 3 3 4 4 3 4 6 9 10 9 8 7 7 7 8 9 9 9 8 8 8 8 8 11 12 6 3 3 2 6 8 9 11 13 11 12 12 9 9 12 12 12 14 13 11 9 10 11 9 7 8 11 12 12 13 15 13 10 8 7 7 10 12 10 9 9 8 7 6 5
3 3 1 1 1 3 5 6 7 7 8 7 5 6 8 9 9 8 5 3 3 3 4 6 7 9 11 12 10 8 8 7 7 7 7 8 8 7 6 6 6 8 6 1 2 2 1 5 8 6 9 13 12 12 13 12 12 13 13 14 14 13 13 11 11 12 12 12 12 13 16 15 12 14 17 12 8 8 9 10 13 13 12 12 11 8 6 6
3 3 2 2 3 4 5 6 6 6 7 6 6 6 6 9 10 9 5 4 6 4 4 8 11 10 10 11 11 11 11 9 11 11 9 9 9 6 5 4 2 2 2 0 1 2 3 5 5 3 6 11 11 11 12 12 12 14 14 12 11 12 13 12 12 12 12 12 11 12 14 13 9 12 17 14 10 9 10 11 13 14 13 13 14 12 10 8
4 4 2 3 5 5 4 4 4 5 6 5 5 6 6 9 10 9 7 6 9 9 7 9 12 10 9 11 12 14 13 12 14 15 12 12 11 7 4 3 3 5 4 3 2 3 4 3 3 2 5 10 10 9 10 10 10 12 13 12 13 13 12 10 9 9 10 11 10 10 10 9 8 10 13 14 11 9 10 10 10 10 10 10 11 11 11 11
6 5 3 2 5 5 4 5 4 5 5 5 6 7 7 9 9 10 9 6 7 9 8 10 13 10 10 12 12 13 12 12 14 14 11 11 11 9 8 9 10 9 7 4 3 4 4 3 4 4 5 9 10 6 5 7 6 7 11 14 15 14 12 11 9 10 12 11 8 8 8 8 10 10 10 12 11 9 10 9 9 10 10 9 10 11 12 13
Wind_Direction
6 6 5 4 3 1 359 358 356 354 352 350 348 347 346 344 341 339 337 336 336 335 334 333 332 332 332 334 333 334 335 328 317 307 292 285 284 279 281 344 2 351 329 315 312 306 303 291 279 265 260 249 227 228 230 219 189 191 192 223 228 225 228 223 239 251 259 261 217 174 172 196 188 163 144 85 216 183 160 184 140 115 89 101 113 119 130 141
5 4 2 2 1 360 358 356 355 353 352 350 347 347 345 343 341 339 336 335 335 334 334 333 331 329 330 332 332 336 335 323 306 296 290 280 263 242 296 13 2 358 351 327 318 315 307 298 314 322 281 250 232 220 218 202 188 199 195 220 228 228 234 237 244 253 258 269 279 194 177 212 207 159 160 162 194 206 185 191 161 132 106 114 125 129 138 146
2 1 360 359 358 358 357 355 353 352 350 349 347 345 344 342 342 339 337 336 334 333 333 333 332 329 329 329 330 337 332 316 302 291 282 204 194 154 44 10 355 351 345 320 313 310 303 300 305 308 284 263 245 222 212 186 189 205 207 225 227 229 244 252 253 258 257 276 350 290 161 201 260 154 152 181 196 201 203 197 176 171 151 146 143 141 150 155
360 358 358 356 355 354 354 354 352 350 348 347 345 344 342 341 341 339 337 336 334 332 331 331 332 331 329 328 327 336 330 309 301 152 123 139 152 78 11 356 346 340 333 314 309 301 293 295 290 281 273 271 254 236 223 198 193 201 212 230 231 228 242 246 251 271 285 341 22 300 344 32 291 303 164 184 206 205 209 207 196 198 172 157 157 154 159 163
356 355 355 354 353 352 352 352 351 349 347 345 344 342 341 340 339 338 336 335 334 331 330 329 330 332 329 327 325 333 327 299 7 108 129 132 105 347 334 337 337 336 333 310 308 305 293 285 273 267 260 261 257 246 227 213 221 232 226 231 237 240 250 242 238 323 344 10 26 294 299 262 279 282 239 197 220 212 190 211 202 205 186 163 161 163 163 167
352 352 351 350 350 349 349 349 349 348 346 344 343 341 339 338 337 336 334 333 332 330 329 328 329 330 327 325 323 322 300 258 27 103 126 321 314 312 316 325 330 332 326 305 303 300 293 282 260 247 239 244 251 251 238 218 222 246 247 238 240 241 252 257 235 48 353 331 295 275 285 286 265 253 237 214 240 239 88 66 60 319 210 165 158 161 164 171
348 347 347 347 346 346 346 345 346 345 344 343 341 340 338 336 334 333 332 330 329 329 327 327 327 327 326 326 322 299 252 252 279 275 292 304 301 303 311 322 327 323 310 297 298 290 289 287 263 245 244 244 242 249 252 238 227 237 246 242 252 250 247 260 246 115 355 304 283 292 315 302 258 250 224 216 240 249 150 82 71 9 30 145 151 163 168 172
344 343 342 342 342 342 343 342 342 342 342 340 339 338 336 334 332 330 329 327 327 326 325 325 325 326 326 328 322 284 253 257 271 281 289 293 299 308 315 322 321 314 304 292 297 302 300 284 263 255 250 250 255 260 259 255 243 240 246 246 268 275 261 266 273 163 164 264 279 285 286 264 255 267 262 240 235 236 226 111 97 61 62 132 148 166 171 173
341 340 338 338 338 338 339 339 339 339 339 338 336 335 334 332 330 328 326 325 324 322 322 323 322 324 322 320 305 280 277 266 265 281 289 294 308 308 307 316 319 315 303 287 282 286 291 275 266 282 289 278 281 291 281 261 243 239 254 255 258 269 268 262 267 261 229 223 250 255 251 246 252 266 262 249 247 256 251 223 126 123 167 172 161 167 175 178
340 338 336 335 335 335 335 336 336 336 336 335 334 333 332 330 327 325 323 321 321 320 320 319 320 322 317 314 289 270 292 289 267 280 292 310 322 309 309 319 329 321 295 279 273 273 288 299 307 316 316 295 276 283 277 264 269 291 290 275 262 264 269 257 240 245 243 227 226 236 243 239 235 238 243 234 229 250 268 259 195 159 188 199 188 183 177 181
341 338 335 333 332 331 331 332 333 333 333 332 332 331 329 327 323 322 320 318 317 317 317 315 316 317 308 299 272 256 288 311 307 312 304 306 308 312 323 321 327 322 300 276 263 270 285 302 318 313 289 285 273 269 268 273 279 287 301 295 279 274 275 267 252 240 235 231 221 228 249 245 230 228 230 222 212 218 233 250 237 194 193 203 205 199 184 186
342 338 336 334 331 330 329 329 330 331 331 330 329 328 326 323 320 318 316 313 312 312 312 311 312 311 301 281 260 261 279 287 292 297 293 293 294 296 305 305 311 314 309 293 279 297 304 308 311 279 268 310 288 262 278 296 284 276 283 283 274 269 262 252 245 235 223 224 209 208 254 245 228 230 230 223 220 225 225 231 236 219 198 205 207 199 195 192
344 341 339 337 333 329 328 327 328 328 328 328 326 325 322 319 318 317 315 310 308 308 307 307 307 302 292 272 263 272 276 276 280 285 284 283 283 282 282 284 288 296 305 299 298 315 315 309 299 272 278 295 276 285 320 306 282 271 261 260 269 268 254 236 225 224 221 218 194 179 243 239 219 224 226 217 213 230 241 231 228 226 207 202 203 199 198 190
346 344 341 340 336 330 328 326 326 327 327 326 325 322 319 318 317 315 312 307 305 305 303 302 301 294 278 265 279 282 276 271 270 274 276 274 273 272 270 268 270 274 279 282 288 298 291 285 286 278 276 266 268 316 320 277 244 256 251 238 238 252 253 227 210 208 210 207 191 191 242 247 221 217 214 209 204 211 228 231 226 228 220 206 198 198 201 190
347 345 341 340 337 332 329 325 325 326 326 325 323 319 317 318 315 312 309 305 302 300 299 297 290 281 271 272 284 283 276 269 263 263 263 263 265 265 263 259 258 260 265 271 274 274 265 265 265 264 265 247 248 285 298 264 234 222 239 232 213 230 258 253 216 197 198 197 186 194 241 246 235 233 217 204 202 206 215 219 217 220 222 219 209 198 203 203
347 343 340 338 335 332 328 325 325 325 325 324 320 318 320 319 315 312 308 303 299 295 294 291 277 268 274 290 289 275 273 268 264 264 257 252 255 259 264 264 261 263 266 264 266 266 249 244 246 250 268 252 227 237 261 263 239 209 222 236 219 218 237 258 222 183 186 192 188 200 225 229 219 233 234 217 200 201 211 218 217 216 216 220 221 206 200 211
347 342 337 334 332 331 328 326 325 325 325 323 321 321 322 322 319 313 307 304 302 292 277 265 275 286 269 270 284 296 301 292 294 299 278 256 250 251 257 263 262 259 257 249 252 261 242 218 219 234 243 245 227 210 224 236 232 218 218 235 243 240 236 220 189 171 183 196 198 206 224 240 256 251 238 250 212 200 206 212 219 219 216 218 223 220 207 208
347 342 336 332 330 329 328 326 325 325 324 323 325 324 321 325 325 311 303 312 309 285 261 251 274 299 261 254 282 309 317 322 329 323 302 280 265 255 248 246 256 251 246 247 234 228 231 209 203 228 212 212 222 208 212 221 216 217 216 229 241 243 255 234 186 169 186 204 212 211 224 233 252 277 284 276 262 223 218 211 215 220 218 221 222 225 220 212
346 343 338 333 328 328 327 326 326 324 322 328 330 325 322 332 331 308 302 347 330 287 274 267 258 255 276 299 294 289 293 305 321 321 306 300 292 282 256 239 248 246 238 245 215 201 213 220 205 217 220 210 212 212 220 230 233 244 243 248 246 229 242 241 201 170 186 204 223 222 234 233 231 245 244 239 228 224 246 240 231 232 231 235 230 225 225 223
344 342 339 333 328 327 326 326 325 321 324 334 333 326 330 346 342 324 355 340 300 275 281 275 261 258 272 289 286 287 289 284 291 291 300 308 304 302 275 234 230 234 230 234 218 188 181 214 220 213 218 217 216 220 228 242 256 270 278 279 274 253 235 234 205 180 188 198 225 226 243 252 241 240 236 233 222 209 223 231 233 235 234 239 237 234 230 228
344 341 338 334 328 325 325 324 321 320 328 335 329 326 350 9 356 335 331 305 258 261 272 265 259 261 263 267 272 285 296 278 235 244 274 293 299 308 274 219 216 225 223 227 239 228 194 213 226 219 219 223 227 230 230 238 248 260 271 279 285 276 255 260 145 146 174 188 240 235 242 249 246 246 242 236 232 224 218 214 219 221 221 228 231 233 235 232
343 341 339 335 328 325 323 319 316 320 330 333 326 331 4 15 355 326 321 302 270 253 258 264 260 259 261 261 263 267 275 272 269 264 253 261 262 226 238 218 214 222 217 219 231 242 233 232 233 229 225 225 230 239 238 236 237 245 258 264 269 273 279 287 149 145 153 177 256 255 256 254 247 243 238 232 233 231 227 222 219 214 213 218 219 220 225 227
344 342 341 336 331 326 319 314 316 321 327 330 331 345 3 357 340 326 315 294 291 263 244 260 256 256 262 263 261 249 242 247 268 275 223 201 234 238 256 247 227 228 214 207 215 220 231 237 235 234 240 236 229 232 242 245 238 235 241 247 250 252 266 271 192 152 161 236 290 313 291 273 268 269 256 241 243 240 235 233 227 219 212 211 211 211 215 217
344 343 342 339 334 326 316 315 318 324 331 325 336 6 359 339 333 331 320 271 288 288 247 251 252 261 280 298 284 237 232 236 248 273 233 188 218 229 236 252 248 244 224 213 215 221 235 243 239 227 229 239 238 229 231 240 242 231 228 242 252 249 252 259 211 84 345 311 326 336 299 273 238 243 251 248 252 248 239 237 234 226 216 206 207 215 220 219
343 344 343 342 337 327 319 315 317 336 336 327 349 6 347 335 338 335 324 274 279 273 241 243 249 305 333 323 298 246 249 256 242 263 249 198 203 204 227 249 241 244 236 226 221 225 237 241 251 248 230 226 235 234 225 224 239 238 225 231 247 261 267 262 182 139 304 278 219 157 269 274 225 220 233 228 233 238 229 225 229 224 213 204 207 216 221 223
341 343 343 342 338 330 322 318 336 340 328 336 13 347 335 335 337 337 322 273 276 275 265 293 80 354 360 356 333 300 265 274 269 257 245 231 216 202 237 245 214 246 245 238 234 235 238 230 232 249 252 237 231 233 225 221 237 241 219 226 237 243 254 259 239 182 220 259 234 130 229 270 264 237 241 231 231 238 226 213 218 218 210 204 207 213 215 220
340 342 342 342 340 334 316 311 331 327 318 347 356 332 329 333 328 333 326 262 275 321 351 351 325 355 11 24 29 4 297 336 312 258 241 245 225 178 226 236 232 250 243 239 245 227 228 226 221 230 244 250 242 235 222 213 229 235 211 251 254 233 231 238 231 210 240 316 341 79 121 280 272 248 250 262 261 259 247 220 214 211 208 205 204 211 214 220
337 340 341 339 338 330 296 289 305 303 305 327 327 318 322 329 322 323 328 282 307 9 20 10 3 80 41 327 103 151 278 346 337 319 347 303 253 189 219 240 242 252 242 221 244 248 234 229 225 227 232 236 237 243 228 202 218 228 151 276 280 255 224 208 192 220 274 304 264 229 165 266 268 234 214 249 256 262 261 248 219 199 199 200 201 210 217 222
335 338 341 336 333 330 304 278 274 279 297 310 306 308 316 322 315 289 258 282 347 20 304 38 8 66 10 291 171 188 243 51 185 317 356 320 276 247 239 245 261 272 263 234 240 261 267 254 210 237 243 237 230 237 234 207 215 224 178 174 320 340 9 147 171 203 212 232 242 227 194 222 266 245 186 223 232 238 251 252 224 190 190 196 198 208 217 221
333 334 339 335 328 330 321 289 268 271 284 291 296 309 309 301 295 284 261 270 16 356 264 15 349 295 309 318 313 219 233 227 266 307 339 292 282 283 270 268 279 289 279 253 245 254 264 280 318 247 253 276 271 243 231 220 216 207 175 178 115 70 68 83 174 167 205 235 235 226 207 209 260 250 191 218 229 218 229 237 226 200 193 201 201 206 216 217
331 332 335 332 321 317 312 300 290 270 257 282 308 307 287 268 252 296 268 239 339 304 269 3 343 314 324 330 321 307 280 281 307 345 320 292 272 231 266 275 225 243 281 271 259 256 254 257 258 224 209 259 323 287 246 237 223 172 144 173 194 185 169 188 200 187 219 238 231 224 213 212 245 248 195 227 243 224 218 223 226 215 199 199 198 203 214 215
331 332 330 327 321 306 285 279 295 257 210 318 331 298 282 282 234 236 258 321 310 311 38 347 334 334 329 322 310 316 360 289 262 313 306 323 321 264 241 239 215 225 252 247 255 256 247 239 230 222 195 170 243 292 257 248 223 188 182 184 195 203 194 193 198 202 223 241 235 215 205 211 241 252 242 244 248 243 235 216 214 217 198 186 190 202 213 214
332 331 327 326 320 300 278 273 273 236 190 344 311 284 291 284 268 209 267 307 287 332 350 328 331 334 319 310 311 339 346 250 355 294 271 270 290 283 245 240 247 252 249 239 254 258 256 241 213 210 209 174 177 208 229 227 209 201 196 192 197 201 212 214 208 215 229 245 240 207 205 217 240 246 234 231 236 247 261 244 215 221 193 177 187 198 206 208
330 333 330 323 312 297 286 276 258 212 183 213 261 263 238 240 277 321 275 266 272 308 321 332 334 325 310 309 340 27 277 262 43 335 303 311 301 313 294 251 245 247 262 272 259 244 253 256 203 191 188 176 190 205 213 216 223 215 202 203 211 205 216 221 214 220 231 245 225 197 208 213 211 229 215 220 225 225 233 232 222 236 215 194 203 201 196 199
331 334 329 315 304 299 293 274 241 206 191 183 178 232 229 232 277 276 261 267 282 301 321 343 329 310 309 324 352 39 28 334 4 335 312 332 313 313 313 295 257 242 250 251 250 237 241 261 238 205 191 180 196 207 206 201 246 237 212 214 220 213 221 237 235 222 226 261 218 186 219 229 240 290 293 248 232 209 219 218 210 227 230 227 245 229 198 186
331 332 324 309 303 301 294 271 228 205 197 191 201 231 228 235 252 249 288 310 317 328 332 333 319 299 317 333 314 20 54 294 309 317 302 285 276 278 291 330 348 287 269 261 267 275 248 258 266 233 210 195 199 202 196 188 196 229 209 219 226 219 221 243 254 245 244 264 234 188 235 247 277 287 264 254 301 167 216 219 212 221 221 220 236 230 205 195
329 327 317 308 313 306 295 276 212 192 181 174 216 242 234 222 231 238 275 302 314 334 330 325 339 321 312 313 309 346 12 309 301 318 323 307 271 225 239 322 170 234 343 349 291 309 301 280 276 267 255 241 235 227 208 195 196 204 202 215 223 235 236 211 246 245 236 250 238 221 241 226 215 251 227 224 232 207 209 215 213 217 212 213 221 217 214 219
318 316 307 309 335 6 290 282 194 173 136 200 238 252 240 212 216 228 260 290 297 309 315 304 311 314 305 308 313 330 337 321 330 337 315 302 261 140 110 230 169 148 94 93 218 347 10 308 283 270 256 255 282 283 240 216 214 221 227 194 191 213 231 195 226 233 227 241 240 232 241 230 217 233 214 215 222 215 208 206 212 214 206 207 216 220 225 228
314 315 307 4 42 74 316 251 166 147 121 224 244 255 235 241 247 243 273 289 278 284 293 257 238 274 306 303 301 314 319 310 323 327 305 304 340 330 312 296 151 126 123 125 157 357 45 334 285 299 302 296 17 71 250 246 240 262 339 268 174 185 220 208 224 236 231 241 242 233 233 225 225 240 248 240 234 224 207 198 210 215 207 205 210 221 228 221
325 319 287 55 45 28 26 116 157 152 226 234 254 270 303 308 273 259 267 267 269 279 261 239 250 282 289 291 294 301 307 306 309 306 298 314 310 303 313 342 355 212 161 147 132 118 109 217 272 320 349 343 312 213 229 243 241 247 268 236 211 189 224 249 247 242 245 244 242 240 237 228 214 223 240 248 248 237 215 201 204 204 203 207 207 215 223 218
322 294 43 50 17 339 41 97 191 202 239 249 251 258 291 309 288 284 274 251 252 265 264 267 271 274 282 289 294 301 305 303 302 289 278 290 292 293 347 45 325 313 283 202 191 168 172 187 258 302 334 311 277 280 277 266 256 241 229 231 228 217 225 249 246 232 232 237 241 251 254 250 220 215 227 235 242 242 228 216 206 198 200 204 207 214 216 207
302 263 316 341 317 310 54 202 239 234 237 252 254 259 299 311 294 296 291 265 251 251 262 268 259 258 268 268 271 289 295 288 290 281 267 268 272 279 297 314 305 303 302 285 269 188 103 119 223 263 259 257 271 276 273 271 277 272 250 241 258 243 225 236 244 242 237 231 232 253 258 250 251 273 282 296 312 320 289 253 211 189 189 192 205 212 194 178
300 291 302 303 286 243 51 261 258 251 238 255 272 283 307 292 274 285 283 251 229 247 209 234 248 244 244 251 262 283 290 275 256 247 255 269 269 279 294 308 312 300 264 274 272 98 64 210 256 280 267 258 264 265 266 39 73 316 304 289 275 265 249 250 257 272 266 239 232 251 253 240 249 282 297 312 327 349 340 317 250 174 177 186 199 192 167 169
304 282 287 282 224 149 228 269 277 278 278 299 297 286 267 233 232 256 261 222 186 210 224 227 233 227 230 252 267 269 282 276 246 239 257 271 267 280 291 302 313 304 292 329 345 61 253 275 311 316 312 307 299 294 352 34 37 358 335 316 298 290 283 276 273 282 273 234 235 247 251 246 279 300 296 293 301 314 314 317 342 113 173 184 177 173 181 188
299 266 253 223 167 147 212 277 305 289 297 319 305 290 280 243 220 234 246 251 235 223 231 235 227 231 242 253 257 257 254 248 253 266 269 269 274 280 284 301 321 310 305 341 20 64 272 283 302 283 283 293 296 296 347 7 357 336 312 305 312 316 306 295 282 274 265 237 241 248 258 286 295 296 300 308 318 303 272 279 318 333 302 248 164 195 224 210
320 290 296 253 153 156 226 211 262 269 295 326 321 308 294 284 275 248 240 255 248 230 238 249 250 262 261 252 256 259 248 238 241 258 267 272 282 281 281 297 306 291 284 294 326 90 278 253 216 233 244 243 250 261 283 317 308 288 286 291 298 300 298 303 300 284 285 282 262 249 252 274 278 278 284 304 315 303 289 296 311 311 311 308 294 275 259 214
281 272 317 332 119 246 230 146 40 320 324 335 328 318 303 299 307 297 224 225 252 256 255 246 239 248 248 248 258 256 250 244 237 248 263 266 267 271 275 279 280 275 276 277 225 135 255 256 230 230 239 243 247 257 269 274 262 263 269 277 280 280 283 287 277 277 295 299 279 270 264 259 265 269 265 267 279 292 312 323 319 321 326 317 303 284 262 215
271 304 12 68 201 293 286 334 349 331 324 323 305 288 291 291 298 300 256 233 264 276 268 241 229 237 242 248 260 265 267 263 248 246 257 261 265 275 276 264 252 259 268 262 157 152 239 258 246 236 248 255 253 256 263 259 251 253 254 256 262 266 267 265 261 264 273 270 274 292 292 275 276 284 278 264 259 268 284 293 298 306 317 318 315 300 276 251
291 289 355 101 220 313 312 313 323 315 303 302 285 272 280 283 284 286 281 278 272 240 232 247 247 243 243 242 246 257 263 265 262 252 253 266 274 282 286 274 249 253 263 243 167 156 187 259 255 245 258 263 256 255 257 255 254 255 252 248 250 255 255 252 253 256 255 255 262 275 279 276 277 283 283 281 276 274 276 278 283 289 295 297 298 300 297 282
315 308 336 351 309 300 296 294 299 293 283 278 271 270 279 282 283 285 285 292 302 289 243 255 266 269 268 262 256 257 256 256 262 261 265 277 277 275 282 283 280 298 324 17 269 178 188 261 281 277 269 267 260 256 255 253 253 255 257 254 249 252 253 249 247 249 250 255 257 258 266 271 263 261 273 279 277 275 274 269 270 273 271 268 268 271 277 277
305 306 300 308 294 284 275 276 278 283 280 269 266 277 282 280 288 305 310 293 284 281 272 282 293 297 289 283 276 270 268 265 265 266 266 269 271 275 278 269 284 300 286 257 250 200 203 265 306 287 271 271 264 258 259 258 255 257 261 256 245 241 243 240 236 236 237 243 248 250 255 264 260 256 265 270 266 264 266 265 267 272 268 260 258 263 268 268
295 284 258 273 288 281 278 280 270 268 273 268 272 283 289 295 311 322 315 291 271 281 298 313 316 317 303 293 289 284 283 278 274 275 271 264 265 269 264 255 254 260 258 249 235 211 210 256 277 254 260 270 264 258 273 282 275 257 250 243 239 240 245 249 246 237 235 235 241 249 246 250 260 265 269 274 272 260 257 259 262 265 267 263 257 256 259 259